TimeCDT,TemperatureF,Dew PointF,Humidity,Sea Level PressureIn,VisibilityMPH,Wind Direction,Wind SpeedMPH,Gust SpeedMPH,PrecipitationIn,Events,Conditions,WindDirDegrees,DateUTC
12:15 AM,78.1,69.8,76,29.83,10.0,Calm,Calm,-,N/A,,Clear,0,2013-09-24 05:15:00
12:35 AM,78.1,69.6,75,29.83,10.0,Calm,Calm,-,N/A,,Clear,0,2013-09-24 05:35:00
12:55 AM,76.5,70.3,81,29.83,10.0,Calm,Calm,-,N/A,,Clear,0,2013-09-24 05:55:00
1:15 AM,75.2,70.2,84,29.84,10.0,Calm,Calm,-,N/A,,Clear,0,2013-09-24 06:15:00
1:35 AM,76.5,70.5,82,29.84,10.0,Calm,Calm,-,N/A,,Clear,0,2013-09-24 06:35:00
1:55 AM,76.1,70.0,81,29.84,10.0,Calm,Calm,-,N/A,,Clear,0,2013-09-24 06:55:00
2:35 AM,75.6,69.6,82,29.84,10.0,Calm,Calm,-,N/A,,Clear,0,2013-09-24 07:35:00
2:55 AM,75.2,69.8,83,29.84,10.0,Calm,Calm,-,N/A,,Clear,0,2013-09-24 07:55:00
3:15 AM,75.2,69.6,83,29.84,10.0,Calm,Calm,-,N/A,,Clear,0,2013-09-24 08:15:00
3:35 AM,74.3,69.8,86,29.84,10.0,Calm,Calm,-,N/A,,Clear,0,2013-09-24 08:35:00
3:55 AM,74.5,69.8,85,29.84,10.0,Calm,Calm,-,N/A,,Clear,0,2013-09-24 08:55:00
4:35 AM,73.8,69.8,87,29.83,10.0,Calm,Calm,-,N/A,,Clear,0,2013-09-24 09:35:00
4:55 AM,73.4,69.4,87,29.83,10.0,Calm,Calm,-,N/A,,Clear,0,2013-09-24 09:55:00
5:15 AM,73.2,69.8,89,29.83,10.0,Calm,Calm,-,N/A,,Clear,0,2013-09-24 10:15:00
5:35 AM,72.5,69.1,89,29.84,10.0,Calm,Calm,-,N/A,,Clear,0,2013-09-24 10:35:00
5:55 AM,71.8,68.5,89,29.84,10.0,Calm,Calm,-,N/A,,Clear,0,2013-09-24 10:55:00
6:15 AM,71.6,68.4,89,29.85,10.0,NNE,3.5,-,N/A,,Clear,30,2013-09-24 11:15:00
6:35 AM,72.5,68.9,88,29.85,10.0,Calm,Calm,-,N/A,,Clear,0,2013-09-24 11:35:00
6:55 AM,72.7,68.9,88,29.86,10.0,NW,5.8,-,N/A,,Clear,320,2013-09-24 11:55:00
7:15 AM,72.5,68.9,88,29.87,10.0,NNW,3.5,-,N/A,,Clear,330,2013-09-24 12:15:00
7:35 AM,72.5,68.7,88,29.87,10.0,Calm,Calm,-,N/A,,Clear,0,2013-09-24 12:35:00
7:55 AM,73.2,69.1,87,29.87,10.0,Calm,Calm,-,N/A,,Clear,0,2013-09-24 12:55:00
8:15 AM,73.8,69.4,86,29.88,10.0,Calm,Calm,-,N/A,,Clear,0,2013-09-24 13:15:00
8:35 AM,75.6,70.7,85,29.88,10.0,Calm,Calm,-,N/A,,Clear,0,2013-09-24 13:35:00
8:55 AM,78.3,70.2,76,29.89,10.0,Calm,Calm,-,N/A,,Clear,0,2013-09-24 13:55:00
9:15 AM,79.9,70.0,72,29.89,10.0,North,3.5,-,N/A,,Clear,360,2013-09-24 14:15:00
9:35 AM,81.0,69.8,69,29.90,10.0,North,6.9,-,N/A,,Clear,350,2013-09-24 14:35:00
9:55 AM,81.9,70.0,67,29.90,10.0,North,6.9,-,N/A,,Clear,360,2013-09-24 14:55:00
10:15 AM,83.3,70.0,64,29.90,10.0,North,6.9,-,N/A,,Clear,350,2013-09-24 15:15:00
10:35 AM,84.7,70.2,61,29.91,10.0,North,8.1,-,N/A,,Clear,350,2013-09-24 15:35:00
10:55 AM,85.8,69.8,59,29.90,10.0,North,4.6,-,N/A,,Clear,350,2013-09-24 15:55:00
11:15 AM,87.3,69.1,55,29.90,10.0,North,8.1,-,N/A,,Clear,350,2013-09-24 16:15:00
11:35 AM,88.9,67.8,50,29.90,10.0,NNW,8.1,-,N/A,,Clear,340,2013-09-24 16:35:00
11:55 AM,89.6,67.1,47,29.90,10.0,North,10.4,-,N/A,,Clear,350,2013-09-24 16:55:00
12:15 PM,90.5,66.9,46,29.90,10.0,North,10.4,-,N/A,,Clear,360,2013-09-24 17:15:00
12:55 PM,91.2,66.7,44,29.88,10.0,NNE,5.8,-,N/A,,Clear,30,2013-09-24 17:55:00
1:15 PM,91.8,66.6,43,29.88,10.0,North,9.2,-,N/A,,Clear,350,2013-09-24 18:15:00
1:35 PM,92.8,63.9,38,29.87,10.0,North,9.2,-,N/A,,Clear,360,2013-09-24 18:35:00
1:55 PM,93.4,61.3,34,29.86,10.0,North,9.2,-,N/A,,Clear,10,2013-09-24 18:55:00
2:15 PM,94.3,62.4,35,29.85,10.0,NNW,9.2,-,N/A,,Clear,340,2013-09-24 19:15:00
2:35 PM,93.6,61.0,34,29.85,10.0,North,6.9,-,N/A,,Clear,350,2013-09-24 19:35:00
2:55 PM,94.6,59.9,31,29.84,10.0,North,11.5,16.1,N/A,,Clear,10,2013-09-24 19:55:00
3:15 PM,95.0,59.0,30,29.84,10.0,North,9.2,17.3,N/A,,Clear,10,2013-09-24 20:15:00
3:35 PM,95.2,59.0,30,29.83,10.0,NNE,6.9,-,N/A,,Clear,20,2013-09-24 20:35:00
3:55 PM,95.5,57.7,28,29.82,10.0,NNE,6.9,-,N/A,,Clear,30,2013-09-24 20:55:00
4:15 PM,95.4,56.5,27,29.82,10.0,North,5.8,-,N/A,,Clear,10,2013-09-24 21:15:00
4:35 PM,95.4,55.2,26,29.82,10.0,NNE,9.2,-,N/A,,Clear,30,2013-09-24 21:35:00
4:55 PM,95.2,57.6,28,29.82,10.0,NNE,4.6,-,N/A,,Clear,20,2013-09-24 21:55:00
5:15 PM,95.2,56.3,27,29.81,10.0,North,9.2,-,N/A,,Clear,10,2013-09-24 22:15:00
5:35 PM,95.2,57.2,28,29.81,10.0,North,9.2,-,N/A,,Clear,360,2013-09-24 22:35:00
5:55 PM,94.5,56.7,28,29.81,10.0,North,6.9,-,N/A,,Clear,10,2013-09-24 22:55:00
6:15 PM,93.7,56.7,29,29.82,10.0,North,4.6,-,N/A,,Clear,10,2013-09-24 23:15:00
6:35 PM,92.3,57.7,31,29.82,10.0,NNE,3.5,-,N/A,,Clear,20,2013-09-24 23:35:00
6:55 PM,90.7,59.5,35,29.82,10.0,Calm,Calm,-,N/A,,Clear,0,2013-09-24 23:55:00
7:15 PM,89.2,59.7,37,29.83,10.0,Calm,Calm,-,N/A,,Clear,0,2013-09-25 00:15:00
7:35 PM,88.0,59.9,39,29.83,10.0,Calm,Calm,-,N/A,,Clear,0,2013-09-25 00:35:00
7:55 PM,86.2,61.3,43,29.83,10.0,North,3.5,-,N/A,,Clear,360,2013-09-25 00:55:00
8:15 PM,84.0,62.2,48,29.84,10.0,NNW,4.6,-,N/A,,Clear,330,2013-09-25 01:15:00
8:35 PM,82.0,62.8,52,29.84,10.0,North,3.5,-,N/A,,Clear,10,2013-09-25 01:35:00
8:55 PM,82.8,61.2,48,29.85,10.0,North,3.5,-,N/A,,Clear,10,2013-09-25 01:55:00
9:15 PM,81.3,61.9,52,29.86,10.0,Calm,Calm,-,N/A,,Clear,0,2013-09-25 02:15:00
9:35 PM,81.1,61.3,51,29.86,10.0,Calm,Calm,-,N/A,,Clear,0,2013-09-25 02:35:00
9:55 PM,78.1,67.1,69,29.87,10.0,Calm,Calm,-,N/A,,Clear,0,2013-09-25 02:55:00
10:15 PM,79.3,64.8,61,29.87,10.0,Calm,Calm,-,N/A,,Clear,0,2013-09-25 03:15:00
10:35 PM,78.1,65.5,65,29.87,10.0,Calm,Calm,-,N/A,,Clear,0,2013-09-25 03:35:00
10:55 PM,77.7,65.1,65,29.87,10.0,Calm,Calm,-,N/A,,Clear,0,2013-09-25 03:55:00
11:15 PM,77.2,65.3,67,29.87,10.0,Calm,Calm,-,N/A,,Clear,0,2013-09-25 04:15:00
11:35 PM,76.3,66.2,71,29.87,10.0,Calm,Calm,-,N/A,,Clear,0,2013-09-25 04:35:00
11:55 PM,74.8,66.4,75,29.87,10.0,Calm,Calm,-,N/A,,Clear,0,2013-09-25 04:55:00